Back to catalog

STARLINK-30991

AliveCommunicationsVLEO
NORAD 58484·PAYLOAD·🇺🇸 United States

Launched Dec 3, 2023 from Cape Canaveral Space Force Station

Loading…

Next Passes (next 24 hours)

TLE

FreshSource: CelesTrak SupGP

Epoch: Sep 14, 2026, 21:11 UTC

1 58484C 23186M   26257.88312500  .00044290  00000+0  16042-2 0  2578
2 58484  43.0029  74.8018 0001368 266.6740 152.8719 15.27554998    15

Track STARLINK-30991 in real time with AllMySat

Download on the App Store